星链-5020 (STARLINK-5020 )

导读 | 豆包AI

STARLINK-5020是美国SpaceX星链互联网星座中的一颗卫星,于北京时间2023年2月2日8时发射入轨,属于星链低轨互联网卫星组网计划的组成部分,旨在为全球用户提供高速低延迟的宽带互联网服务,依托批量部署的低轨卫星星座架构,填补全球偏远地区等网络覆盖空白,助力全球互联网连通性提升。

Basic Information
目录编号:
55458
目录名称:
STARLINK-5020
国际标识:
2023-015K
轨道中心:
EARTH
卫星名称:
星链-5020
卫星全名:
星链-5020 (STARLINK-5020 )
卫星状态:
在轨 (已飞行1137 天)
发射日期:
2023-02-02 UTC
国别 :
美国 (US)
星等 :
--
Orbit Information
数据来源 国际轨道数据 AOE轨道数据
星历时间 2026-03-15T14:00:01+0800
10小时前
查看轨道信息
2026-03-11T22:00:00+0800
4天前
查看轨道信息
半长轴 6922.987km 6937.231km
偏心率 0.0000836 0.0001245
轨道倾角 43.000° 43.004°
近地点辐角 254.997° 252.951°
升交点赤经 295.789° 315.775°
平近点角 342.897° 262.818°
近地点 544.271km 558.23km
远地点 545.429km 559.958km
周期 95.543分钟 95.838分钟
每日圈数 15.071709 15.025314
Detailed Information
固有亮度:
5
最大亮度:
2.5
卫星平台:
Starlink v1.5
覆盖范围:
全球
运营商:
太空探索技术公司
运营商所在国:
美国
制造商(研发单位):
太空探索技术公司
制造商所在国:
美国
使用方式:
暂无
Satellite Introduction
星链(Starlink)计划是由太空探索技术公司(SpaceX)提出的一个巨型低轨卫星互联网星座项目,计划在2019年至2024年间在太空搭建由约1.2万颗卫星组成的“星链”网络,其中1584颗将部署在地球上空550千米处的近地轨道,并从2020年开始工作。该卫星仍在工作。
2D Orbit Map
3D Orbit Map
Orbit Altitude Analysis Chart
Orbit Inclination Analysis Chart
Orbit Comprehensive Analysis Chart
View Comprehensive Chart